Location: Pedholt
(56.0260°N, 10.2097°E)
Time: 21:35:19
(UTC+00:00)

SR - Pass Details

Date: 04 August 2021
Orbit: 581 x 874 km, 66.7° (Epoch: 26 September)

Event Time Altitude Azimuth Distance (km) Brightness Sun altitude
Rises 13:16:05 0° 314° (NW) 3,158 ? 45.8°
Reaches altitude 10° 13:18:38 10° 308° (NW) 2,182 ? 45.5°
Maximum altitude 13:23:14 41° 239° (WSW) 966 ? 45.1°
Drops below altitude 10° 13:27:29 10° 170° (S) 2,008 ? 44.7°
Sets 13:29:45 0° 163° (SSE) 2,875 ? 44.5°
